| time (UTC) | temp C | wind direction | speed KPH | gust KPH | rain 1hr cm | rain 24hr cm | rain mn cm | humidity % | barometer mb |
| 20260503032531 | 10 | 98 | 0.0 | 0.0 | 0.00 | 0.00 | 0.00 | 20 | 1013.9 |
| 20260503032032 | 11 | 98 | 0.0 | 0.0 | 0.00 | 0.00 | 0.00 | 21 | 1013.8 |
| 20260503031528 | 11 | 98 | 0.0 | 0.0 | 0.00 | 0.00 | 0.00 | 22 | 1013.9 |
| 20260503031028 | 11 | 98 | 0.0 | 0.0 | 0.00 | 0.00 | 0.00 | 23 | 1014.0 |
| 20260503030525 | 11 | 98 | 0.0 | 0.0 | 0.00 | 0.00 | 0.00 | 24 | 1014.0 |
| 20260503030044 | 11 | 98 | 0.0 | 0.0 | 0.00 | 0.00 | 0.00 | 25 | 1014.0 |
| 20260503025523 | 11 | 98 | 0.0 | 0.0 | 0.00 | 0.00 | 0.00 | 27 | 1014.0 |
| 20260503025023 | 11 | 98 | 0.0 | 0.0 | 0.00 | 0.00 | 0.00 | 28 | 1014.0 |
| 20260503024529 | 11 | 98 | 0.0 | 0.0 | 0.00 | 0.00 | 0.00 | 28 | 1014.0 |
| 20260503024019 | 11 | 98 | 0.0 | 0.0 | 0.00 | 0.00 | 0.00 | 30 | 1014.0 |
| 20260503023517 | 11 | 98 | 0.0 | 0.0 | 0.00 | 0.00 | 0.00 | 31 | 1014.0 |
| 20260503023016 | 11 | 98 | 0.0 | 0.0 | 0.00 | 0.00 | 0.00 | 32 | 1013.8 |
| 20260503022514 | 11 | 98 | 0.0 | 0.0 | 0.00 | 0.00 | 0.00 | 33 | 1013.9 |
| 20260503022013 | 11 | 98 | 0.0 | 0.0 | 0.00 | 0.00 | 0.00 | 34 | 1013.7 |
| 20260503021512 | 11 | 98 | 0.0 | 0.0 | 0.00 | 0.00 | 0.00 | 36 | 1013.8 |
| 20260503021010 | 11 | 98 | 0.0 | 0.0 | 0.00 | 0.00 | 0.00 | 38 | 1013.7 |
| 20260503020510 | 11 | 98 | 0.0 | 0.0 | 0.00 | 0.00 | 0.00 | 40 | 1013.6 |
| 20260503020007 | 11 | 98 | 0.0 | 0.0 | 0.00 | 0.00 | 0.00 | 40 | 1013.6 |
| 20260503015505 | 11 | 98 | 0.0 | 0.0 | 0.00 | 0.00 | 0.00 | 40 | 1013.7 |
| 20260503015007 | 11 | 98 | 0.0 | 0.0 | 0.00 | 0.00 | 0.00 | 40 | 1013.7 |
| 20260503014505 | 11 | 98 | 0.0 | 0.0 | 0.00 | 0.00 | 0.00 | 40 | 1013.6 |
| 20260503014001 | 12 | 98 | 0.0 | 0.0 | 0.00 | 0.00 | 0.00 | 40 | 1013.6 |
| 20260503013600 | 12 | 98 | 0.0 | 0.0 | 0.00 | 0.00 | 0.00 | 41 | 1013.5 |
| 20260503013059 | 12 | 98 | 0.0 | 0.0 | 0.00 | 0.00 | 0.00 | 41 | 1013.4 |
| 20260503012557 | 12 | 98 | 0.0 | 0.0 | 0.00 | 0.00 | 0.00 | 42 | 1013.5 |
| 20260503012055 | 12 | 98 | 0.0 | 0.0 | 0.00 | 0.00 | 0.00 | 43 | 1013.4 |
| 20260503011559 | 12 | 98 | 0.0 | 0.0 | 0.00 | 0.00 | 0.00 | 45 | 1013.3 |
| 20260503011053 | 12 | 98 | 0.0 | 0.0 | 0.00 | 0.00 | 0.00 | 47 | 1013.4 |
| 20260503010551 | 12 | 98 | 0.0 | 0.0 | 0.00 | 0.00 | 0.00 | 47 | 1013.4 |
| 20260503010105 | 12 | 98 | 0.0 | 0.0 | 0.00 | 0.00 | 0.00 | 49 | 1013.4 |
| 20260503005552 | 12 | 98 | 0.0 | 0.0 | 0.00 | 0.00 | 0.00 | 49 | 1013.4 |
| 20260503005048 | 12 | 98 | 0.0 | 0.0 | 0.00 | 0.00 | 0.00 | 51 | 1013.3 |
| 20260503004546 | 12 | 98 | 0.0 | 0.0 | 0.00 | 0.00 | 0.00 | 52 | 1013.2 |
| 20260503004044 | 12 | 98 | 0.0 | 0.0 | 0.00 | 0.00 | 0.00 | 53 | 1013.1 |
| 20260503003542 | 13 | 98 | 0.0 | 0.0 | 0.00 | 0.00 | 0.00 | 54 | 1013.0 |
| 20260503003052 | 13 | 98 | 0.0 | 0.0 | 0.00 | 0.00 | 0.00 | 55 | 1012.8 |
| 20260503002540 | 13 | 98 | 0.0 | 0.0 | 0.00 | 0.00 | 0.00 | 55 | 1012.8 |
| 20260503002041 | 13 | 98 | 0.0 | 0.0 | 0.00 | 0.00 | 0.00 | 55 | 1012.7 |
| 20260503001537 | 13 | 98 | 0.0 | 0.0 | 0.00 | 0.00 | 0.00 | 55 | 1012.8 |
| 20260503001039 | 13 | 98 | 0.0 | 0.0 | 0.00 | 0.00 | 0.00 | 55 | 1012.6 |
| 20260503000534 | 13 | 98 | 0.0 | 0.0 | 0.00 | 0.00 | 0.00 | 55 | 1012.6 |
| 20260503000035 | 13 | 98 | 0.0 | 0.0 | 0.00 | 0.00 | 0.00 | 55 | 1012.5 |
| 20260502235531 | 13 | 98 | 0.0 | 0.0 | 0.00 | 0.00 | 0.00 | 55 | 1012.4 |
| 20260502235034 | 13 | 98 | 0.0 | 0.0 | 0.00 | 0.00 | 0.00 | 54 | 1012.3 |
| 20260502234528 | 13 | 98 | 0.0 | 0.0 | 0.00 | 0.00 | 0.00 | 54 | 1012.2 |
| 20260502234027 | 14 | 98 | 0.0 | 0.0 | 0.00 | 0.00 | 0.00 | 54 | 1012.2 |
| 20260502233524 | 14 | 98 | 0.0 | 0.0 | 0.00 | 0.00 | 0.00 | 54 | 1012.0 |
| 20260502233024 | 14 | 98 | 0.0 | 0.0 | 0.00 | 0.00 | 0.00 | 54 | 1012.0 |
| 20260502232522 | 14 | 98 | 0.0 | 0.0 | 0.00 | 0.00 | 0.00 | 52 | 1011.9 |
| 20260502232020 | 14 | 98 | 0.0 | 0.0 | 0.00 | 0.00 | 0.00 | 50 | 1011.7 |
| 20260502231519 | 14 | 98 | 0.0 | 0.0 | 0.00 | 0.00 | 0.00 | 51 | 1011.7 |
| 20260502231018 | 14 | 98 | 0.0 | 0.0 | 0.00 | 0.00 | 0.00 | 48 | 1011.6 |
| 20260502230517 | 14 | 98 | 0.0 | 0.0 | 0.00 | 0.00 | 0.00 | 48 | 1011.6 |
| 20260502230016 | 15 | 98 | 0.0 | 0.0 | 0.00 | 0.00 | 0.00 | 47 | 1011.5 |
| 20260502225517 | 15 | 98 | 0.0 | 0.0 | 0.00 | 0.00 | 0.00 | 48 | 1011.5 |
| 20260502225012 | 15 | 98 | 0.0 | 0.0 | 0.00 | 0.00 | 0.00 | 49 | 1011.5 |
| 20260502224511 | 15 | 98 | 0.0 | 0.0 | 0.00 | 0.00 | 0.00 | 47 | 1011.4 |
| 20260502224009 | 15 | 98 | 0.0 | 0.0 | 0.00 | 0.00 | 0.00 | 48 | 1011.4 |
| 20260502223508 | 15 | 98 | 0.0 | 0.0 | 0.00 | 0.00 | 0.00 | 47 | 1011.4 |
| 20260502223009 | 15 | 98 | 0.0 | 0.0 | 0.00 | 0.00 | 0.00 | 47 | 1011.4 |
| 20260502222505 | 15 | 98 | 0.0 | 0.0 | 0.00 | 0.00 | 0.00 | 45 | 1011.4 |
| 20260502222005 | 15 | 98 | 0.0 | 0.0 | 0.00 | 0.00 | 0.00 | 45 | 1011.4 |
| 20260502221501 | 15 | 82 | 0.0 | 0.0 | 0.00 | 0.00 | 0.00 | 46 | 1011.5 |
| 20260502221101 | 15 | 82 | 0.0 | 1.6 | 0.00 | 0.00 | 0.00 | 44 | 1011.5 |
| 20260502220558 | 15 | 82 | 0.0 | 1.6 | 0.00 | 0.00 | 0.00 | 44 | 1011.6 |
| 20260502220057 | 15 | 77 | 0.0 | 0.0 | 0.00 | 0.00 | 0.00 | 46 | 1011.6 |
| 20260502215556 | 15 | 77 | 0.0 | 3.2 | 0.00 | 0.00 | 0.00 | 45 | 1011.8 |
| 20260502215053 | 15 | 103 | 0.0 | 3.2 | 0.00 | 0.00 | 0.00 | 45 | 1011.8 |
| 20260502214557 | 15 | 319 | 0.0 | 0.0 | 0.00 | 0.00 | 0.00 | 47 | 1011.8 |
| 20260502214052 | 15 | 319 | 0.0 | 0.0 | 0.00 | 0.00 | 0.00 | 44 | 1011.7 |
| 20260502213549 | 15 | 317 | 0.0 | 6.4 | 0.00 | 0.00 | 0.00 | 44 | 1011.8 |
| 20260502213048 | 15 | 317 | 0.0 | 6.4 | 0.00 | 0.00 | 0.00 | 44 | 1011.9 |
| 20260502212548 | 15 | 295 | 0.0 | 3.2 | 0.00 | 0.00 | 0.00 | 46 | 1011.8 |
| 20260502212044 | 15 | 295 | 0.0 | 6.4 | 0.00 | 0.00 | 0.00 | 45 | 1011.8 |
| 20260502211549 | 15 | 294 | 1.6 | 6.4 | 0.00 | 0.00 | 0.00 | 45 | 1011.7 |
| 20260502211042 | 15 | 334 | 0.0 | 3.2 | 0.00 | 0.00 | 0.00 | 47 | 1011.7 |
| 20260502210540 | 15 | 334 | 0.0 | 3.2 | 0.00 | 0.00 | 0.00 | 46 | 1011.6 |
| 20260502210039 | 15 | 334 | 1.6 | 6.4 | 0.00 | 0.00 | 0.00 | 45 | 1011.5 |
| 20260502205542 | 15 | 60 | 0.0 | 3.2 | 0.00 | 0.00 | 0.00 | 45 | 1011.6 |
| 20260502205036 | 15 | 88 | 0.0 | 3.2 | 0.00 | 0.00 | 0.00 | 44 | 1011.6 |
| 20260502204535 | 15 | 82 | 0.0 | 0.0 | 0.00 | 0.00 | 0.00 | 43 | 1011.6 |
| 20260502204034 | 15 | 82 | 0.0 | 0.0 | 0.00 | 0.00 | 0.00 | 43 | 1011.6 |
| 20260502203532 | 15 | 82 | 0.0 | 0.0 | 0.00 | 0.00 | 0.00 | 43 | 1011.6 |
| 20260502203031 | 16 | 82 | 0.0 | 3.2 | 0.00 | 0.00 | 0.00 | 43 | 1011.8 |
| 20260502202528 | 16 | 82 | 0.0 | 3.2 | 0.00 | 0.00 | 0.00 | 43 | 1011.8 |
| 20260502202027 | 16 | 82 | 0.0 | 4.8 | 0.00 | 0.00 | 0.00 | 42 | 1011.8 |
| 20260502201531 | 16 | 82 | 0.0 | 4.8 | 0.00 | 0.00 | 0.00 | 42 | 1011.8 |
| 20260502201029 | 16 | 49 | 0.0 | 0.0 | 0.00 | 0.00 | 0.00 | 44 | 1012.0 |
| 20260502200523 | 16 | 49 | 0.0 | 0.0 | 0.00 | 0.00 | 0.00 | 41 | 1012.1 |
| 20260502200022 | 16 | 49 | 0.0 | 0.0 | 0.00 | 0.00 | 0.00 | 46 | 1012.1 |
| 20260502195521 | 16 | 49 | 0.0 | 1.6 | 0.00 | 0.00 | 0.00 | 46 | 1012.0 |
| 20260502195019 | 16 | 49 | 0.0 | 3.2 | 0.00 | 0.00 | 0.00 | 44 | 1012.1 |
| 20260502194517 | 16 | 49 | 0.0 | 3.2 | 0.00 | 0.00 | 0.00 | 41 | 1012.1 |
| 20260502194017 | 16 | 146 | 0.0 | 4.8 | 0.00 | 0.00 | 0.00 | 44 | 1012.2 |
| 20260502193514 | 16 | 146 | 0.0 | 4.8 | 0.00 | 0.00 | 0.00 | 41 | 1012.3 |
| 20260502193013 | 16 | 328 | 0.0 | 3.2 | 0.00 | 0.00 | 0.00 | 44 | 1012.3 |
| 20260502192512 | 16 | 326 | 1.6 | 8.0 | 0.00 | 0.00 | 0.00 | 42 | 1012.4 |
| 20260502192009 | 16 | 28 | 1.6 | 8.0 | 0.00 | 0.00 | 0.00 | 43 | 1012.5 |
| 20260502191509 | 16 | 206 | 0.0 | 4.8 | 0.00 | 0.00 | 0.00 | 44 | 1012.6 |
| 20260502191009 | 15 | 60 | 0.0 | 1.6 | 0.00 | 0.00 | 0.00 | 46 | 1012.6 |
| 20260502190505 | 15 | 60 | 0.0 | 6.4 | 0.00 | 0.00 | 0.00 | 44 | 1012.6 |
| 20260502190007 | 15 | 61 | 1.6 | 6.4 | 0.00 | 0.00 | 0.00 | 44 | 1012.7 |
| 20260502185502 | 15 | 211 | 1.6 | 4.8 | 0.00 | 0.00 | 0.00 | 46 | 1012.7 |
| 20260502185001 | 15 | 87 | 0.0 | 4.8 | 0.00 | 0.00 | 0.00 | 46 | 1012.9 |
| 20260502184604 | 15 | 87 | 0.0 | 4.8 | 0.00 | 0.00 | 0.00 | 43 | 1012.9 |
| 20260502184101 | 15 | 240 | 1.6 | 6.4 | 0.00 | 0.00 | 0.00 | 44 | 1013.0 |
| 20260502183557 | 15 | 206 | 1.6 | 6.4 | 0.00 | 0.00 | 0.00 | 44 | 1012.8 |
| 20260502183056 | 15 | 333 | 1.6 | 6.4 | 0.00 | 0.00 | 0.00 | 45 | 1012.9 |
| 20260502182553 | 15 | 165 | 0.0 | 4.8 | 0.00 | 0.00 | 0.00 | 46 | 1012.9 |
| 20260502182052 | 15 | 303 | 0.0 | 4.8 | 0.00 | 0.00 | 0.00 | 45 | 1013.3 |
| 20260502181607 | 15 | 105 | 1.6 | 4.8 | 0.00 | 0.00 | 0.00 | 45 | 1013.3 |
| 20260502181049 | 15 | 103 | 1.6 | 4.8 | 0.00 | 0.00 | 0.00 | 46 | 1013.4 |
| 20260502180547 | 15 | 342 | 0.0 | 4.8 | 0.00 | 0.00 | 0.00 | 45 | 1013.4 |
| 20260502164023 | 12 | 325 | 0.0 | 4.8 | 0.00 | 0.00 | 0.00 | 53 | 1014.6 |
| 20260502163521 | 12 | 325 | 1.6 | 4.8 | 0.00 | 0.00 | 0.00 | 53 | 1014.5 |
| 20260502163020 | 12 | 57 | 0.0 | 0.0 | 0.00 | 0.00 | 0.00 | 54 | 1014.6 |
| 20260502162520 | 12 | 57 | 0.0 | 1.6 | 0.00 | 0.00 | 0.00 | 54 | 1014.6 |
| 20260502162017 | 11 | 101 | 0.0 | 3.2 | 0.00 | 0.00 | 0.00 | 53 | 1014.7 |
| 20260502161515 | 11 | 101 | 0.0 | 3.2 | 0.00 | 0.00 | 0.00 | 52 | 1014.7 |
| 20260502161015 | 11 | 101 | 0.0 | 8.0 | 0.00 | 0.00 | 0.00 | 52 | 1014.7 |
| 20260502160514 | 11 | 111 | 0.0 | 8.0 | 0.00 | 0.00 | 0.00 | 51 | 1014.7 |
| 20260502152059 | 12 | 239 | 1.6 | 8.0 | 0.00 | 0.00 | 0.00 | 50 | 1015.1 |
| 20260502151606 | 12 | 311 | 1.6 | 8.0 | 0.00 | 0.00 | 0.00 | 51 | 1014.7 |
| 20260502151100 | 12 | 330 | 0.0 | 4.8 | 0.00 | 0.00 | 0.00 | 52 | 1014.7 |
| 20260502150555 | 12 | 360 | 1.6 | 4.8 | 0.00 | 0.00 | 0.00 | 53 | 1014.7 |
| 20260502130522 | 11 | 79 | 0.0 | 4.8 | 0.00 | 0.00 | 0.00 | 35 | 1014.3 |
| 20260502123510 | 11 | 329 | 0.0 | 4.8 | 0.00 | 0.00 | 0.00 | 16 | 1014.0 |
| 20260502123010 | 10 | 317 | 0.0 | 4.8 | 0.00 | 0.00 | 0.00 | 11 | 1013.9 |
| 20260502122508 | 10 | 327 | 0.0 | 4.8 | 0.00 | 0.00 | 0.00 | 8 | 1014.1 |
| 20260502122010 | 10 | 327 | 1.6 | 6.4 | 0.00 | 0.00 | 0.00 | 5 | 1013.9 |
| 20260502121509 | 10 | 12 | 1.6 | 6.4 | 0.00 | 0.00 | 0.00 | 3 | 1013.9 |
| 20260502121006 | 10 | 327 | 1.6 | 9.7 | 0.00 | 0.00 | 0.00 | 1 | 1013.7 |
| 20260502120504 | 10 | 130 | 1.6 | 9.7 | 0.00 | 0.00 | 0.00 | 1 | 1013.7 |
| 20260502120107 | 10 | 57 | 1.6 | 6.4 | 0.00 | 0.00 | 0.00 | 1 | 1013.7 |
| 20260502115600 | 10 | 92 | 1.6 | 6.4 | 0.00 | 0.00 | 0.00 | 1 | 1013.7 |
| 20260502115058 | 10 | 348 | 1.6 | 8.0 | 0.00 | 0.00 | 0.00 | 1 | 1013.8 |
| 20260502114600 | 10 | 317 | 0.0 | 8.0 | 0.00 | 0.00 | 0.00 | 1 | 1013.9 |
| 20260502114056 | 10 | 306 | 0.0 | 8.0 | 0.00 | 0.00 | 0.00 | 1 | 1013.8 |
| 20260502113554 | 10 | 32 | 1.6 | 8.0 | 0.00 | 0.00 | 0.00 | 1 | 1013.9 |
| 20260502113053 | 10 | 120 | 1.6 | 4.8 | 0.00 | 0.00 | 0.00 | 1 | 1013.9 |
| 20260502112551 | 10 | 56 | 0.0 | 4.8 | 0.00 | 0.00 | 0.00 | 1 | 1013.8 |
| 20260502112049 | 10 | 296 | 0.0 | 4.8 | 0.00 | 0.00 | 0.00 | 1 | 1013.8 |
| 20260502111549 | 10 | 146 | 0.0 | 4.8 | 0.00 | 0.00 | 0.00 | 1 | 1013.7 |
| 20260502111046 | 10 | 139 | 0.0 | 0.0 | 0.00 | 0.00 | 0.00 | 1 | 1013.8 |
| 20260502110546 | 10 | 135 | 0.0 | 1.6 | 0.00 | 0.00 | 0.00 | 1 | 1013.9 |
| 20260502110045 | 10 | 135 | 0.0 | 1.6 | 0.00 | 0.00 | 0.00 | 1 | 1014.0 |
| 20260502105543 | 10 | 135 | 0.0 | 1.6 | 0.00 | 0.00 | 0.00 | 1 | 1013.9 |
| 20260502105042 | 10 | 121 | 0.0 | 4.8 | 0.00 | 0.00 | 0.00 | 1 | 1013.9 |
| 20260502104541 | 10 | 76 | 1.6 | 4.8 | 0.00 | 0.00 | 0.00 | 1 | 1013.8 |
| 20260502104039 | 10 | 109 | 0.0 | 3.2 | 0.00 | 0.00 | 0.00 | 1 | 1013.7 |
| 20260502103540 | 10 | 100 | 0.0 | 1.6 | 0.00 | 0.00 | 0.00 | 1 | 1013.6 |
| 20260502103036 | 10 | 86 | 0.0 | 1.6 | 0.00 | 0.00 | 0.00 | 1 | 1013.7 |
| 20260502102534 | 10 | 92 | 0.0 | 1.6 | 0.00 | 0.00 | 0.00 | 1 | 1013.5 |
| 20260502102033 | 10 | 98 | 0.0 | 1.6 | 0.00 | 0.00 | 0.00 | 1 | 1013.5 |
| 20260502101537 | 9 | 101 | 0.0 | 0.0 | 0.00 | 0.00 | 0.00 | 1 | 1013.5 |
| 20260502101029 | 9 | 101 | 0.0 | 0.0 | 0.00 | 0.00 | 0.00 | 1 | 1013.5 |
| 20260502100528 | 9 | 101 | 0.0 | 0.0 | 0.00 | 0.00 | 0.00 | 1 | 1013.4 |
| 20260502091514 | 10 | 174 | 0.0 | 0.0 | 0.00 | 0.00 | 0.00 | 1 | 1013.0 |
| 20260502091012 | 10 | 174 | 0.0 | 0.0 | 0.00 | 0.00 | 0.00 | 1 | 1013.0 |
| 20260502090510 | 10 | 174 | 0.0 | 0.0 | 0.00 | 0.00 | 0.00 | 1 | 1013.1 |
| 20260502080104 | 10 | 174 | 0.0 | 0.0 | 0.00 | 0.00 | 0.00 | 1 | 1012.6 |
| 20260502071037 | 11 | 174 | 0.0 | 0.0 | 0.00 | 0.00 | 0.00 | 1 | 1012.5 |
| 20260502070537 | 11 | 174 | 0.0 | 0.0 | 0.00 | 0.00 | 0.00 | 1 | 1012.4 |
| 20260502070037 | 11 | 174 | 0.0 | 0.0 | 0.00 | 0.00 | 0.00 | 1 | 1012.5 |
| 20260502065533 | 11 | 174 | 0.0 | 0.0 | 0.00 | 0.00 | 0.00 | 1 | 1012.4 |
| 20260502065034 | 11 | 174 | 0.0 | 0.0 | 0.00 | 0.00 | 0.00 | 1 | 1012.6 |
| 20260502064546 | 11 | 174 | 0.0 | 0.0 | 0.00 | 0.00 | 0.00 | 1 | 1012.5 |
| 20260502064030 | 11 | 174 | 0.0 | 0.0 | 0.00 | 0.00 | 0.00 | 1 | 1012.4 |
| 20260502063529 | 11 | 174 | 0.0 | 0.0 | 0.00 | 0.00 | 0.00 | 1 | 1012.5 |
| 20260502063033 | 11 | 174 | 0.0 | 0.0 | 0.00 | 0.00 | 0.00 | 1 | 1012.5 |
| 20260502062527 | 11 | 174 | 0.0 | 0.0 | 0.00 | 0.00 | 0.00 | 1 | 1012.4 |
| 20260502062023 | 11 | 174 | 0.0 | 0.0 | 0.00 | 0.00 | 0.00 | 1 | 1012.6 |
| 20260502061520 | 11 | 174 | 0.0 | 0.0 | 0.00 | 0.00 | 0.00 | 1 | 1012.7 |
| 20260502061019 | 11 | 174 | 0.0 | 0.0 | 0.00 | 0.00 | 0.00 | 1 | 1012.8 |
| 20260502060518 | 11 | 174 | 0.0 | 1.6 | 0.00 | 0.00 | 0.00 | 1 | 1012.8 |
| 20260502060016 | 12 | 174 | 0.0 | 3.2 | 0.00 | 0.00 | 0.00 | 1 | 1012.7 |
| 20260502055515 | 12 | 174 | 0.0 | 3.2 | 0.00 | 0.00 | 0.00 | 1 | 1012.9 |
| 20260502055014 | 12 | 174 | 0.0 | 1.6 | 0.00 | 0.00 | 0.00 | 1 | 1012.9 |
| 20260502054513 | 12 | 174 | 0.0 | 1.6 | 0.00 | 0.00 | 0.00 | 1 | 1012.8 |
| 20260502054011 | 12 | 174 | 0.0 | 0.0 | 0.00 | 0.00 | 0.00 | 1 | 1012.8 |
| 20260502053509 | 12 | 174 | 0.0 | 0.0 | 0.00 | 0.00 | 0.00 | 1 | 1012.8 |
| 20260502053008 | 12 | 174 | 0.0 | 1.6 | 0.00 | 0.00 | 0.00 | 1 | 1012.8 |
| 20260502052508 | 12 | 174 | 0.0 | 3.2 | 0.00 | 0.00 | 0.00 | 2 | 1012.8 |
| 20260502052005 | 12 | 174 | 0.0 | 3.2 | 0.00 | 0.00 | 0.00 | 3 | 1012.7 |
| 20260502051504 | 12 | 160 | 0.0 | 3.2 | 0.00 | 0.00 | 0.00 | 4 | 1012.7 |
| 20260502051002 | 12 | 160 | 1.6 | 3.2 | 0.00 | 0.00 | 0.00 | 5 | 1012.9 |
| 20260502050501 | 12 | 161 | 0.0 | 3.2 | 0.00 | 0.00 | 0.00 | 6 | 1012.8 |
| 20260502050100 | 12 | 161 | 0.0 | 3.2 | 0.00 | 0.00 | 0.00 | 7 | 1012.9 |
| 20260502045558 | 12 | 159 | 0.0 | 3.2 | 0.00 | 0.00 | 0.00 | 8 | 1012.9 |
| 20260502045057 | 12 | 159 | 0.0 | 4.8 | 0.00 | 0.00 | 0.00 | 9 | 1012.9 |
| 20260502044556 | 12 | 159 | 1.6 | 4.8 | 0.00 | 0.00 | 0.00 | 10 | 1013.0 |
| 20260502044056 | 12 | 163 | 0.0 | 8.0 | 0.00 | 0.00 | 0.00 | 11 | 1013.0 |
| 20260502043555 | 12 | 165 | 0.0 | 8.0 | 0.00 | 0.00 | 0.00 | 12 | 1013.1 |
| 20260502043054 | 12 | 167 | 0.0 | 8.0 | 0.00 | 0.00 | 0.00 | 13 | 1013.2 |
| 20260502042551 | 13 | 154 | 1.6 | 3.2 | 0.00 | 0.00 | 0.00 | 14 | 1013.2 |
| 20260502042050 | 13 | 194 | 0.0 | 6.4 | 0.00 | 0.00 | 0.00 | 15 | 1013.2 |
| 20260502041550 | 13 | 194 | 1.6 | 6.4 | 0.00 | 0.00 | 0.00 | 17 | 1013.2 |
| 20260502041049 | 13 | 151 | 1.6 | 8.0 | 0.00 | 0.00 | 0.00 | 19 | 1013.1 |
| 20260502040548 | 13 | 155 | 0.0 | 6.4 | 0.00 | 0.00 | 0.00 | 20 | 1013.1 |
| 20260502040057 | 13 | 150 | 0.0 | 8.0 | 0.00 | 0.00 | 0.00 | 22 | 1013.2 |
| 20260502035546 | 13 | 142 | 0.0 | 0.0 | 0.00 | 0.00 | 0.00 | 23 | 1013.1 |
| 20260502035044 | 13 | 142 | 0.0 | 8.0 | 0.00 | 0.00 | 0.00 | 24 | 1013.0 |
| 20260502034543 | 13 | 142 | 0.0 | 8.0 | 0.00 | 0.00 | 0.00 | 26 | 1013.0 |
| 20260502034044 | 13 | 139 | 0.0 | 4.8 | 0.00 | 0.00 | 0.00 | 27 | 1013.0 |
| 20260502033540 | 13 | 139 | 1.6 | 4.8 | 0.00 | 0.00 | 0.00 | 28 | 1012.9 |
| 20260502033038 | 13 | 146 | 0.0 | 4.8 | 0.00 | 0.00 | 0.00 | 30 | 1012.9 |